Midland Airpark, TX
on Wednesday, September 13, 2017

Wednesday
Previous Day Next Day
Daily Summary
 ActualAverage (KMAF)Record (KMAF)
Temperature
Mean Temperature - -  
Max Temperature 99 °F 87 °F 102 °F (1930)
Min Temperature 69 °F 63 °F 49 °F (1959)
Cooling Degree Days 19    
Growing Degree Days34 (Base - )  
Moisture
Dew Point 45 °F   
Average Humidity 29    
Maximum Humidity 51    
Minimum Humidity 12    
Precipitation
Precipitation 0.00 in - - ()
Wind
Wind Speed 6 mph   
Max Wind Speed 10 mph   
Max Gust Speed 9 mph   
Visibility 8 miles   
Events     
Averages and records for this station are not official NWS values.
Key: T is trace of precipitation, MM is missing value
Source: NWS Daily Summary
Seasonal Weather Averages





Time(CDT)TemperatureDew PointHumidity Pressure Visibility Wind DirectionWind SpeedGust SpeedPrecipitationEvents Conditions
12:15 AM 80.6 °F 46.9 °F 31% 29.92 in 10.0 miles SSE 8.1 mph - N/A   Clear
12:35 AM 80.2 °F 47.7 °F 32% 29.92 in 10.0 miles SSE 9.2 mph - N/A   Clear
12:55 AM 79.0 °F 47.8 °F 33% 29.91 in 10.0 miles South 5.8 mph - N/A   Clear
1:15 AM 78.3 °F 48.0 °F 34% 29.91 in 7.0 miles SSE 6.9 mph - N/A   Clear
1:35 AM 77.9 °F 48.4 °F 35% 29.91 in 7.0 miles SSE 6.9 mph - N/A   Clear
1:55 AM 76.5 °F 49.1 °F 38% 29.90 in 7.0 miles SSE 3.5 mph - N/A   Clear
2:15 AM 76.1 °F 49.1 °F 39% 29.91 in 7.0 miles SSE 3.5 mph - N/A   Clear
2:35 AM 75.2 °F 49.1 °F 40% 29.90 in 7.0 miles SSE 4.6 mph - N/A   Clear
2:55 AM 75.0 °F 49.1 °F 40% 29.90 in 10.0 miles South 3.5 mph - N/A   Clear
3:15 AM 74.3 °F 49.1 °F 41% 29.89 in 7.0 miles SE 3.5 mph - N/A   Clear
3:35 AM 72.0 °F 50.4 °F 46% 29.89 in 10.0 miles East 4.6 mph - N/A   Clear
3:55 AM 72.9 °F 49.8 °F 44% 29.89 in 7.0 miles Calm Calm - N/A   Clear
4:15 AM 70.9 °F 50.2 °F 48% 29.89 in 10.0 miles ENE 4.6 mph - N/A   Clear
4:35 AM 70.3 °F 50.5 °F 49% 29.89 in 10.0 miles East 4.6 mph - N/A   Clear
4:55 AM 69.8 °F 50.9 °F 51% 29.89 in 5.0 miles Calm Calm - N/A   Haze
5:15 AM 70.9 °F 50.5 °F 48% 29.89 in 10.0 miles ESE 3.5 mph - N/A   Clear
5:35 AM 71.2 °F 50.5 °F 48% 29.89 in 7.0 miles East 4.6 mph - N/A   Clear
5:55 AM 70.9 °F 50.7 °F 49% 29.89 in 7.0 miles ESE 3.5 mph - N/A   Clear
6:15 AM 69.8 °F 51.1 °F 51% 29.89 in 7.0 miles East 4.6 mph - N/A   Clear
6:35 AM 70.7 °F 50.9 °F 49% 29.89 in 7.0 miles East 3.5 mph - N/A   Clear
6:55 AM 70.7 °F 50.5 °F 49% 29.89 in 7.0 miles East 3.5 mph - N/A   Clear
7:15 AM 71.1 °F 50.5 °F 48% 29.90 in 7.0 miles ESE 3.5 mph - N/A   Clear
7:35 AM 71.4 °F 50.2 °F 47% 29.90 in 5.0 miles ESE 4.6 mph - N/A   Haze
7:55 AM 71.8 °F 49.8 °F 46% 29.90 in 5.0 miles SE 4.6 mph - N/A   Haze
8:15 AM 71.8 °F 50.2 °F 46% 29.90 in 5.0 miles SE 5.8 mph 9.2 mph N/A   Haze
8:35 AM 72.7 °F 49.3 °F 44% 29.91 in 5.0 miles ESE 4.6 mph - N/A   Haze
8:55 AM 73.2 °F 49.6 °F 43% 29.91 in 7.0 miles East 4.6 mph - N/A   Clear
9:15 AM 73.2 °F 49.8 °F 44% 29.91 in 5.0 miles ESE 5.8 mph - N/A   Haze
9:35 AM 73.8 °F 49.1 °F 42% 29.91 in 5.0 miles SE 5.8 mph - N/A   Haze
9:55 AM 74.5 °F 49.1 °F 41% 29.92 in 7.0 miles SSE 5.8 mph - N/A   Clear
10:15 AM 75.9 °F 49.1 °F 39% 29.92 in 5.0 miles SE 4.6 mph - N/A   Haze
10:35 AM 77.7 °F 49.1 °F 36% 29.92 in 5.0 miles SE 5.8 mph - N/A   Haze
10:55 AM 79.3 °F 48.2 °F 33% 29.92 in 5.0 miles SSE 5.8 mph - N/A   Haze
11:15 AM 81.1 °F 48.4 °F 32% 29.92 in 7.0 miles SSE 4.6 mph - N/A   Clear
11:35 AM 82.9 °F 48.2 °F 30% 29.91 in 7.0 miles SSE 5.8 mph - N/A   Clear
11:55 AM 86.2 °F 47.5 °F 26% 29.91 in 7.0 miles SSE 5.8 mph - N/A   Clear
12:15 PM 86.7 °F 47.1 °F 25% 29.91 in 7.0 miles South 5.8 mph - N/A   Clear
12:35 PM 90.7 °F 46.0 °F 21% 29.90 in 7.0 miles SE 8.1 mph - N/A   Clear
12:55 PM 92.3 °F 46.0 °F 20% 29.90 in 7.0 miles SSE 4.6 mph - N/A   Clear
1:15 PM 93.9 °F 44.8 °F 18% 29.89 in 10.0 miles SSW 8.1 mph - N/A   Clear
1:35 PM 94.6 °F 43.9 °F 17% 29.88 in 7.0 miles SE 4.6 mph - N/A   Clear
1:55 PM 95.2 °F 43.7 °F 17% 29.87 in 7.0 miles South 8.1 mph - N/A   Clear
2:15 PM 95.9 °F 43.7 °F 17% 29.86 in 10.0 miles SSE 4.6 mph - N/A   Clear
2:35 PM 97.3 °F 41.4 °F 14% 29.85 in 10.0 miles SSE 9.2 mph - N/A   Clear
2:55 PM 97.7 °F 39.9 °F 14% 29.84 in 10.0 miles South 8.1 mph - N/A   Clear
3:15 PM 98.4 °F 39.9 °F 13% 29.83 in 10.0 miles South 6.9 mph - N/A   Clear
3:35 PM 98.2 °F 39.4 °F 13% 29.82 in 10.0 miles South 8.1 mph - N/A   Clear
3:55 PM 99.1 °F 39.4 °F 13% 29.81 in 10.0 miles SE 8.1 mph - N/A   Clear
4:15 PM 98.4 °F 38.7 °F 13% 29.81 in 7.0 miles WSW 3.5 mph - N/A   Clear
4:35 PM 99.0 °F 39.0 °F 13% 29.80 in 7.0 miles South 6.9 mph - N/A   Clear
4:55 PM 99.5 °F 39.2 °F 12% 29.80 in 10.0 miles South 6.9 mph - N/A   Clear
5:15 PM 99.7 °F 39.0 °F 12% 29.79 in 10.0 miles SSE 4.6 mph - N/A   Clear
5:35 PM 99.3 °F 38.5 °F 12% 29.78 in 10.0 miles ESE 4.6 mph - N/A   Clear
5:55 PM 99.0 °F 38.5 °F 12% 29.78 in 10.0 miles South 9.2 mph - N/A   Clear
6:15 PM 99.0 °F 37.9 °F 12% 29.78 in 10.0 miles SSE 4.6 mph - N/A   Clear
6:35 PM 98.6 °F 38.5 °F 12% 29.78 in 10.0 miles South 9.2 mph - N/A   Clear
6:55 PM 97.7 °F 38.1 °F 13% 29.78 in 10.0 miles SSE 5.8 mph - N/A   Clear
7:15 PM 96.8 °F 38.3 °F 13% 29.78 in 10.0 miles ESE 8.1 mph - N/A   Clear
7:35 PM 95.4 °F 39.4 °F 14% 29.78 in 10.0 miles ESE 5.8 mph - N/A   Clear
7:55 PM 93.7 °F 39.9 °F 15% 29.78 in 10.0 miles SE 5.8 mph - N/A   Clear
8:15 PM 92.3 °F 41.2 °F 17% 29.79 in 10.0 miles ESE 5.8 mph - N/A   Clear
8:35 PM 90.7 °F 41.7 °F 18% 29.79 in 10.0 miles ESE 6.9 mph - N/A   Clear
8:55 PM 89.4 °F 41.9 °F 19% 29.80 in 7.0 miles SE 5.8 mph - N/A   Clear
9:15 PM 88.7 °F 41.5 °F 19% 29.81 in 7.0 miles SE 6.9 mph - N/A   Clear
9:35 PM 88.3 °F 41.4 °F 19% 29.81 in 7.0 miles SE 9.2 mph - N/A   Clear
9:55 PM 87.8 °F 41.2 °F 19% 29.82 in 10.0 miles SE 9.2 mph - N/A   Clear
10:15 PM 87.3 °F 41.9 °F 20% 29.82 in 10.0 miles SE 9.2 mph - N/A   Clear
10:35 PM 86.9 °F 42.3 °F 21% 29.83 in 10.0 miles SE 10.4 mph - N/A   Clear
10:55 PM 85.5 °F 42.8 °F 22% 29.83 in 7.0 miles SE 9.2 mph - N/A   Clear
11:15 PM 85.1 °F 43.0 °F 23% 29.83 in 7.0 miles SSE 9.2 mph - N/A   Clear
11:35 PM 84.2 °F 42.8 °F 23% 29.83 in 10.0 miles SE 8.1 mph - N/A   Clear
11:55 PM 83.8 °F 42.8 °F 24% 29.83 in 10.0 miles SSE 6.9 mph - N/A   Clear
 Powered By Weather Underground